Regional Weather Roundup
Issued by NWS

Home | Current Version | Previous Version | Graphics & Text | Print | Product List | Glossary Off
Versions: 1 2 3 4 5 6 7 8 9 10 11 12 13 14 15 16 17 18 19 20 21 22 23 24 25 26 27 28 29 30 31 32 33 34 35 36 37 38 39 40 41 42 43 44 45 46 47 48 49 50

000
ASUS43 KMPX 271301
RWRMN
WEATHER ROUNDUP FOR MINNESOTA
NATIONAL WEATHER SERVICE TWIN CITIES/CHANHASSEN MN
800 AM CDT THU APR 27 2017


NOTE: "FAIR" INDICATES FEW OR NO CLOUDS BELOW 12,000 FEET WITH NO
SIGNIFICANT WEATHER AND/OR OBSTRUCTIONS TO VISIBILITY. N/A MEANS
CURRENT SKY AND/OR WEATHER CONDITIONS ARE NOT AVAILABLE.

MNZ060>063-068>070-271400-
   Twin Cities Metro

CITY           SKY/WX    TMP DP  RH WIND       PRES   REMARKS
TWIN CITIES    LGT SNOW  33  30  88 N9        29.54R FOG     WCI  25
ST PAUL        LGT SNOW  33  31  92 N9        29.55R FOG     WCI  25
CRYSTAL        CLOUDY    32  26  78 N10       29.53R WCI  24
BLAINE         CLOUDY    34  34 100 N8        29.53R WCI  27
LAKEVILLE      LGT SNOW  32  32 100 NW9       29.53R WCI  24
EDEN PRAIRIE   CLOUDY    33  30  88 N10G21    29.53R FOG     WCI  25
SOUTH ST PAUL  CLOUDY    33  32  97 N9        29.53R WCI  25
LAKE ELMO      CLOUDY    32  32 100 N10       29.54R WCI  24
$$
MNZ001>005-007-008-013>017-022>024-027-028-271400-
   Northwest Minnesota

CITY           SKY/WX    TMP DP  RH WIND       PRES   REMARKS
BEMIDJI        CLOUDY    22  17  81 N12       29.61S WCI  10
HALLOCK        CLOUDY    27  23  86 CALM      29.74S
ROSEAU         CLOUDY    25  19  80 N9        29.70F WCI  15
WARROAD        LGT SNOW  25  21  86 N13       29.69F WCI  13
THIEF RVR FALL FLURRIES  25  21  85 N13       29.70S WCI  14
CROOKSTON      CLOUDY    25  21  86 N8        29.72F WCI  16
FOSSTON        CLOUDY    21  18  86 N10       29.66F WCI  10
DETROIT LAKES  CLOUDY    27  23  86 N12       29.63S WCI  16
MOORHEAD       CLOUDY    25  21  86 N8        29.69F WCI  16
PARK RAPIDS    CLOUDY    24  17  74 N12       29.59R WCI  13
MAHNOMEN       CLOUDY    23  19  85 N6        29.65S WCI  16
$$
MNZ006-009>011-018-025>026-271400-
   North Central Minnesota

CITY           SKY/WX    TMP DP  RH WIND       PRES   REMARKS
BAUDETTE       CLOUDY    23  15  71 NE10      29.65F WCI  12
FLAG ISLAND    LGT SNOW  25  21  86 NE13      29.69F VSB 3/4 WCI  13
INTL FALLS     CLOUDY    22  12  65 N10G21    29.62F WCI  11
WASKISH        CLOUDY    23  18  80 N8        29.63F WCI  14
BIG FORK       CLOUDY    21  16  79 MISG      29.58F
LONGVILLE      CLOUDY    23  18  80 N7        29.58S WCI  15
GRAND RAPIDS   CLOUDY    22  17  81 N13       29.58S WCI  10
CRANE LAKE     CLOUDY    19  14  79 N6        29.61S WCI  11
ORR            LGT SNOW  19  12  73 CALM      29.55S
COOK           CLOUDY    21  14  73 N10       29.57S WCI  10
WALKER         CLOUDY    22  16  77 N13       29.59S WCI  10
$$
MNZ012-019>021-037-271400-
   Northeast Minnesota

CITY           SKY/WX    TMP DP  RH WIND       PRES   REMARKS
DULUTH         CLOUDY    23  20  88 N13       29.50S WCI  11
ELY            CLOUDY    19  16  86 N7        29.53S WCI  10
HIBBING        CLOUDY    20  17  88 N9        29.54F WCI   9
EVELETH        CLOUDY    22  16  75 N6        29.55R WCI  15
DULUTH HARBOR  CLOUDY    28  23  80 N13       29.55F WCI  18
TWO HARBORS    CLOUDY    27  21  80 N7        29.50F WCI  19
SILVER BAY     CLOUDY    25  19  80 N3        29.50S
GRAND MARAIS     N/A     24  18  77 N8G17     29.52F WCI  15
G MARAIS ARPRT CLOUDY    16  12  86 NW5       29.44F WCI   9
$$
MNZ029>031-032-039>041-046>048-054>057-064-271400-
   West Central Minnesota

CITY           SKY/WX    TMP DP  RH WIND       PRES   REMARKS
FERGUS FALLS   CLOUDY    27  21  80 N14G20    29.65R WCI  15
WHEATON        CLOUDY    27  23  86 NW14      29.69R WCI  15
MORRIS         CLOUDY    28  25  86 NW18      29.61S WCI  16
ALEXANDRIA     CLOUDY    27  21  78 N13       29.59S WCI  16
ELBOW LAKE     CLOUDY    28  23  82 NW14      29.63R WCI  17
WADENA         MIX PCPN  23  21  93 N7        29.59S WCI  15
GLENWOOD       CLOUDY    28  23  80 NW13      29.59S WCI  18
APPLETON       CLOUDY    30  25  80 NW15G22   29.63S WCI  19
BENSON         CLOUDY    32  27  80 N14       29.62S WCI  22
ORTONVILLE     CLOUDY    28  23  80 NW18G24   29.65R WCI  16
MADISON        CLOUDY    32  27  80 NW20G25   29.64S WCI  20
WILLMAR        CLOUDY    30  28  93 N10       29.59S WCI  21
$$
MNZ033>034-036-042>043-049>051-058-059-271400-
   Central Minnesota

CITY           SKY/WX    TMP DP  RH WIND       PRES   REMARKS
ST CLOUD       CLOUDY    29  25  85 N9        29.56R WCI  20
SAUK CENTRE    CLOUDY    27  23  84 N10       29.58S WCI  17
PAYNESVILLE    CLOUDY    29  29 100 NW8       29.57S WCI  21
AITKIN         MIX PCPN  27  19  74 NW8       29.55S WCI  18
PINE RIVER     CLOUDY    25  19  80 N7        29.62R WCI  17
BRAINERD       CLOUDY    25  22  88 N12       29.57R WCI  14
STAPLES        CLOUDY    23  19  86 N9        29.58S WCI  13
LONG PRAIRIE   CLOUDY    27  23  86 CALM      29.58S
LITTLE FALLS   CLOUDY    28  23  80 N6        29.57S WCI  22
LITCHFIELD     CLOUDY    30  28  93 NW10      29.57R WCI  21
BUFFALO        CLOUDY    31  28  86 NW6       29.57R WCI  25
MAPLE LAKE     CLOUDY    31  29  92 N10       29.57R WCI  22
HUTCHINSON     CLOUDY    32  28  86 NW14      29.57S WCI  22
$$
MNZ037-044-045-052-053-271400-
   East Central Minnesota

CITY           SKY/WX    TMP DP  RH WIND       PRES   REMARKS
PRINCETON      CLOUDY    30  25  80 NW10      29.55S WCI  21
MORA           CLOUDY    27  23  86 N6        29.56S WCI  20
CAMBRIDGE      CLOUDY    30  25  80 N8        29.53S WCI  23
RUSH CITY      CLOUDY    28  23  82 N10       29.54S WCI  19
MOOSE LAKE     CLOUDY    27  21  80 N8        29.52F WCI  18
HINCKLEY       CLOUDY    28  25  86 N7        29.54S WCI  21
CLOQUET        CLOUDY    23  19  86 NW10G18   29.52S WCI  12
MCGREGOR       CLOUDY    27  23  86 N10       29.55S WCI  17
$$
MNZ071>073-080-081-089-090-097-098-271400-
   Southwest Minnesota

CITY           SKY/WX    TMP DP  RH WIND       PRES   REMARKS
MONTEVIDEO     CLOUDY    28  28 100 N13       29.62S WCI  18
GRANITE FALLS  CLOUDY    31  29  94 W16G22    29.64R FOG     WCI  20
CANBY          CLOUDY    30  25  82 W17       29.65S WCI  18
MARSHALL       CLOUDY    28  24  85 NW17      29.63S WCI  16
REDWOOD FALLS  CLOUDY    30  27  88 NW18      29.59S WCI  18
OLIVIA         MIX PCPN  32  30  93 NW17      29.58R WCI  21
PIPESTONE      CLOUDY    28  21  74 N10G24    29.62R WCI  19
WINDOM         CLOUDY    28  27  93 NW16G24   29.59S FOG     WCI  17
WORTHINGTON    CLOUDY    28  23  81 NW17G25   29.62R WCI  16
JACKSON        CLOUDY    30  28  93 NW18      29.60R FOG     WCI  18
TRACY          CLOUDY    29  26  87 NW17G24   29.62S WCI  17
SLAYTON        CLOUDY    27  23  85 NW14G20   29.61S WCI  16
$$
MNZ065>067-074>077-082>085-091>093-271400-
   South Central Minnesota

CITY           SKY/WX    TMP DP  RH WIND       PRES   REMARKS
MANKATO        CLOUDY    32  28  86 NW14      29.56S WCI  22
NEW ULM        CLOUDY    30  28  93 NW15G22   29.58R WCI  19
ST JAMES       CLOUDY    30  28  93 W17       29.59S WCI  18
FAIRMONT       CLOUDY    31  28  89 NW18      29.59R WCI  19
GLENCOE        LGT SNOW  32  32  99 NW8       29.56R WCI  25
FARIBAULT      CLOUDY    34  30  86 W10       29.53S WCI  26
OWATONNA       CLOUDY    34  30  86 W15       29.53S WCI  24
WASECA         CLOUDY    32  30  93 NW16      29.56R WCI  21
ALBERT LEA     CLOUDY    32  28  86 NW13G20   29.54R WCI  22
$$
MNZ078>079-086>088-094>096-271400-
   Southeast Minnesota

CITY           SKY/WX    TMP DP  RH WIND       PRES   REMARKS
ROCHESTER      LGT RAIN  33  32  96 NW17      29.49S FOG     WCI  22
RED WING       CLOUDY    36  28  75 N7        29.51R
STANTON        DRIZZLE   35  32  90 NW8       29.51S WCI  28
DODGE CENTER   CLOUDY    34  30  86 NW13      29.50S WCI  25
WINONA         CLOUDY    36  32  87 N12G21    29.49R
AUSTIN         LGT SNOW  34  30  86 NW14      29.52R WCI  24
PRESTON        LGT SNOW  33  31  94 NW9       29.50R WCI  25
$$
ABBREVIATIONS USED IN REMARKS
   TC - TEMPERATURES IN CELSIUS
  WCI - WIND CHILL INDEX
   HX - HEAT INDEX
  VSB - VISIBILITY
$$



USA.gov is the U.S. government's official web portal to all federal, state and local government web resources and services.